Home > Weather > Palermo > Past weeks

Flag for Italy Weather for the Past 2 Weeks in Palermo, Italy

Now
57 °F

Clear.


Feels Like: 53 °F
Forecast: 55 / 62 °F
Wind: 18 mph from Southwest

Location: Palermo / Punta Raisi

Current Time: Feb 11, 2016 at 12:06:27 AM

Latest Report: Feb 10, 2016 at 11:20 PM


Visibility: 10 mi

Pressure: 29.92 "Hg

Humidity: 72%

Dew point: 48 °F

Location of PalermoLocation

Historic Weather in Palermo — Graph

°F

Palermo Temperature Yesterday

Maximum temperature yesterday: 64 °F (at 12:20 AM)
Minimum temperature yesterday: 55 °F (at 9:20 PM)
Average temperature yesterday: 61 °F

High & Low Weather Summary for the Past Weeks

 TemperatureHumidityPressure
High64 °F (Feb 3, 12:20 PM)100% (Feb 1, 11:20 PM)30.54 "Hg (Feb 1, 11:20 PM)
Low43 °F (Feb 6, 6:20 AM)37% (Feb 9, 11:50 PM)29.83 "Hg (Feb 10, 4:20 AM)
Average56 °F73%30.28 "Hg
* Reported Jan 26 9:20 PM — Feb 10 9:50 PM, Palermo, Weather by CustomWeather, © 2016

Note: Actual official high and low records may vary slightly from our data, if they occured in-between our weather recording intervals... More about our weather records

Advertising

Palermo Weather History for the Previous 24 Hours

 ConditionsComfort  
Time TempWeatherWind HumidityBarometerVisibility
9:50 PM
Wed, Feb 10
57 °FPassing clouds.21 mph72%29.92 "HgN/A
9:20 PM55 °FPassing clouds.16 mph77%29.92 "HgN/A
8:50 PM59 °FPassing clouds.17 mph72%29.92 "HgN/A
8:20 PM59 °FPassing clouds.15 mph77%29.92 "HgN/A
7:50 PM59 °FPassing clouds.13 mph77%29.92 "HgN/A
7:20 PM59 °FPassing clouds.17 mph77%29.92 "HgN/A
6:50 PM59 °FPassing clouds.16 mph72%29.89 "HgN/A
6:20 PM61 °FPassing clouds.17 mph68%29.89 "HgN/A
5:50 PM61 °FPassing clouds.22 mph68%29.89 "HgN/A
5:20 PM61 °FPassing clouds.24 mph68%29.86 "HgN/A
4:50 PM61 °FScattered clouds.28 mph63%29.86 "HgN/A
4:20 PM61 °FScattered clouds.21 mph68%29.86 "HgN/A
3:50 PM61 °FPartly sunny.16 mph68%29.83 "HgN/A
3:20 PM61 °FPartly sunny.17 mph63%29.83 "HgN/A
2:50 PM61 °FPartly sunny.16 mph77%29.83 "HgN/A
2:20 PM63 °FPassing clouds.20 mph68%29.83 "Hg6 mi
1:50 PM61 °FPassing clouds.21 mph77%29.83 "Hg6 mi
1:20 PM61 °FPartly sunny.21 mph77%29.83 "Hg4 mi
12:50 PM61 °FPartly sunny.26 mph83%29.86 "Hg4 mi
12:20 PM61 °FPartly sunny.18 mph83%29.86 "Hg4 mi
11:50 AM61 °FPartly sunny.21 mph83%29.86 "Hg5 mi
11:20 AM61 °FPartly sunny.21 mph83%29.86 "Hg4 mi
10:50 AM61 °FPartly sunny.22 mph83%29.83 "Hg4 mi
10:20 AM61 °FPartly sunny.22 mph83%29.83 "Hg5 mi
9:50 AM61 °FPartly sunny.23 mph83%29.83 "Hg4 mi
9:20 AM61 °FPartly sunny.22 mph83%29.83 "Hg5 mi
8:50 AM61 °FPartly sunny.23 mph77%29.83 "Hg6 mi
8:20 AM61 °FPartly sunny.23 mph77%29.83 "Hg6 mi
7:50 AM61 °FScattered clouds.23 mph77%29.83 "Hg6 mi
7:20 AM61 °FScattered clouds.24 mph77%29.83 "Hg4 mi
6:50 AM61 °FPassing clouds.26 mph72%29.83 "HgN/A
5:50 AM61 °FPassing clouds.18 mph72%29.83 "HgN/A
5:20 AM61 °FClear.21 mph68%29.83 "Hg10 mi
4:20 AM61 °FClear.26 mph63%29.83 "Hg10 mi
3:20 AM61 °FClear.22 mph63%29.89 "Hg10 mi
2:50 AM61 °FClear.22 mph63%29.89 "Hg10 mi
2:20 AM61 °FClear.25 mph63%29.92 "Hg10 mi
1:50 AM61 °FPassing clouds.26 mph59%29.92 "HgN/A
1:20 AM63 °FClear.28 mph49%29.89 "Hg10 mi
12:50 AM64 °FClear.32 mph40%29.89 "Hg10 mi
12:20 AM64 °FClear.32 mph37%29.89 "Hg10 mi
Weather by CustomWeather, © 2016

See weather overviewHow to use our weather pages